Location: アルンシュタイン
(50.0000°N, 10.0000°E)
Time: 06:01:56
(UTC+01:00)

Envisat - Pass Details

Date: 24 October 2021
Orbit: 764 x 766 km, 98.2° (Epoch: 04 December)

Event Time Altitude Azimuth Distance (km) Brightness Sun altitude
Rises 19:16:58 0° 226° (SW) 3,225 7.1 -11.2°
Reaches altitude 10° 19:21:41 10° 266° (W) 2,308 7.0 -12.0°
Maximum altitude 19:22:35 10° 277° (W) 2,279 6.9 -12.1°
Drops below altitude 10° 19:23:29 10° 287° (WNW) 2,311 6.7 -12.3°
Sets 19:28:14 0° 327° (NNW) 3,246 6.7 -13.0°
